Regional Weather Roundup
Issued by NWS

Home | Current Version | Previous Version | Graphics & Text | Print | Product List | Glossary On
Versions: 1 2 3 4 5 6 7 8 9 10 11 12 13 14 15 16 17 18 19 20 21 22 23 24 25 26 27
000
ASUS45 KBOI 290010
RWRID

IDAHO REGIONAL WEATHER ROUNDUP
NATIONAL WEATHER SERVICE BOISE ID
600 PM MDT SUN AUG 28 2016

NOTE: "FAIR" INDICATES FEW OR NO CLOUDS BELOW 12000 FEET
WITH NO SIGNIFICANT WEATHER AND/OR OBSTRUCTIONS TO VISIBILITY

IDZ012-014-290100-
SOUTHWEST IDAHO


CITY           SKY/WX    TMP DP  RH WIND       PRES   REMARKS
BOISE          SUNNY     90  40  17 N10       30.05F
CALDWELL       SUNNY     90  47  22 N10       30.02F
MOUNTAIN HOME  SUNNY     91  40  16 NW12      30.04F
$$

IDZ016-017-290100-
SOUTHCENTRAL IDAHO


CITY           SKY/WX    TMP DP  RH WIND       PRES   REMARKS
BURLEY         SUNNY     80  46  30 W10       30.12S
JEROME         SUNNY     86  35  16 W14       30.12F
TWIN FALLS     SUNNY     86  36  16 W7        30.13S
$$

IDZ019>023-290100-
SOUTHEAST IDAHO


CITY           SKY/WX    TMP DP  RH WIND       PRES   REMARKS
IDAHO FALLS    SUNNY     86  35  16 SW14      30.13S
POCATELLO      SUNNY     86  34  15 W17       30.14S
REXBURG        CLOUDY    85  35  16 S16       30.13S
$$

IDZ006-010-011-018-031-032-290100-
CENTRAL IDAHO MOUNTAINS


CITY           SKY/WX    TMP DP  RH WIND       PRES   REMARKS
MCCALL         SUNNY     79  35  20 W6        30.19S
STANLEY          N/A     76  30  18 W7        30.27S
SALMON         MOSUNNY   88  37  16 N8        30.04F
CHALLIS        SUNNY     86  32  14 NW10      30.12R
$$

IDZ002-004-006-007-026-290100-
NORTHERN IDAHO


CITY           SKY/WX    TMP DP  RH WIND       PRES   REMARKS
LEWISTON       SUNNY     89  38  16 W5        30.00F
LOWELL           N/A     83  42  23 CALM      29.98F
COEUR D`ALENE  MOSUNNY   79  39  24 NW3       30.05S
MULLAN PASS    MOSUNNY   63  32  31 SW8       30.25R
$$




USA.gov is the U.S. government's official web portal to all federal, state and local government web resources and services.